ATLAS 5 CENTAUR DEB, 49343

Orbit data source: Space-Track

ATLAS 5 CENTAUR DEB, 49343 is space debris in HEO originally from a launch on Wed, 17 Oct 2018 UTC launched from the Air Force Eastern Test Range (AFETR). Debris objects in space refer to the collection of defunct objects orbiting the Earth. Examples of debris include non-operational satellites, rocket bodies, and fragments generated from explosions, collisions, or faulty payload assembly.

Loading next visibility...
Identifier
49343, 2018-079EU
Orbit
HEO
Country
Flag of USUS
Related business
Flag of USUnited Launch Alliance/Lockheed Martin (US)
Manufacturer
ULA Decatur
Mission
Spacecraft
Bus & Motor
Unknown
Mass
Unknown
Launch date (UTC)
2018-10-17 (8 years ago)
Launch vehicle
Unknown
Launch site
Air Force Eastern Test Range (AFETR)
Object type
Payload
Rocket body
Debris
Shape & HBR
Unknown shape, 1.1 m
Radar Cross Section
Large (>1 m²)

Expand to show TLE details & history
Last TLE update: 5 days ago

TLE from 5 days ago
0 ATLAS 5 CENTAUR DEB
1 49343U 18079EU  26231.52720583 -.00000175  00000-0  00000-0 0  9998
2 49343  13.0272  55.9009 4563757 272.9260  37.5332  1.74618347 31731
Epoch: 2026-08-19T12:39Z
TLE epoch observation values (Epoch: 2026-08-19T12:39:10.583Z)
Latitude
-0.00006°
Longitude
-101.69141°
Altitude
16,149.491 km
Speed
4.659 km/s
True Right ascension
03h 43m 55s
True Declination
0° 00' 00"
Sunlit
Object was in daylight at epoch
Visualization orbit readout
Latitude
Unknown
Longitude
Unknown
Altitude
Unknown
Speed
Unknown
Apparent Right ascension
Unknown
Apparent Declination
Unknown
Sunlit
N/A
Visualization observer readout
Local Sidereal Time
19:33:25
Azimuth
Unknown
Elevation
Unknown
Doppler factor
Unknown
Orbital elements
Apogee altitude
36,049.142 km
Perigee altitude
9,458.779 km
Semi-major axis
29,132.097 km
Eccentricity
0.45638
Inclination
13.0272°
RAAN
55.9009°
Arg. of periapsis
272.926°
True anomaly
87.0257°
Mean anomaly
37.5332°
Eccentric anomaly
60.23088°
Mean motion
0.4365 °/min
Orbital period
824.74 mins
BSTAR
0
Loading maneuver chart data...
Computing Atmospheric mass density...

Documentation

Showing up to 5 results
|